This demonstration page uses our WeatherBlox Daily Observations layout. Learn more.

Left ArrowRight Arrow

39.29038, -76.61219

Hourly Observations for January 7, 2020

Temp ( °F °C ) Dew Point ( °F °C ) Humidity (%) Winds ( mph kmh ) Pressure ( in mb ) Visibility ( mi km ) Precip ( " mm )
12:54 am 00:54 undefined 38 3.3 19 -7.2 46 46 undefined N/A 30.11 1020 N/A 0.00 0.00
1:54 am 01:54 undefined 37 2.8 19 -7.2 48 48 undefined N/A 30.11 1020 N/A 0.00 0.00
2:54 am 02:54 undefined 37 2.8 19 -7.2 48 48 undefined N/A 30.11 1020 N/A 0.00 0.00
3:54 am 03:54 undefined 37 2.8 20 -6.7 50 50 undefined N/A 30.11 1020 N/A 0.00 0.00
4:54 am 04:54 undefined 38 3.3 19 -7.2 46 46 undefined N/A 30.10 1019 N/A 0.00 0.00
5:54 am 05:54 undefined 37 2.8 21 -6.1 52 52 undefined N/A 30.08 1019 N/A 0.00 0.00
6:54 am 06:54 undefined 37 2.8 23 -5 57 57 undefined N/A 30.06 1018 N/A 0.00 0.00
7:54 am 07:54 undefined 37 2.8 24 -4.4 59 59 undefined N/A 30.05 1018 N/A 0.00 0.00
8:54 am 08:54 undefined 39 3.9 24 -4.4 55 55 undefined N/A 30.11 1020 N/A 0.00 0.00
9:54 am 09:54 undefined 44 6.7 24 -4.4 45 45 undefined N/A 30.12 1020 N/A 0.00 0.00
10:54 am 10:54 undefined 46 7.8 24 -4.4 42 42 undefined N/A 30.05 1018 N/A 0.00 0.00
11:54 am 11:54 undefined 45 7.2 24 -4.4 44 44 undefined N/A 29.97 1015 N/A 0.00 0.00
12:54 pm 12:54 undefined 44 6.7 22 -5.6 41 41 undefined N/A 29.91 1013 N/A 0.00 0.00
1:54 pm 13:54 undefined 41 5 28 -2.2 60 60 undefined N/A 29.87 1012 N/A 0.00 0.00
2:54 pm 14:54 undefined 37 2.8 32 0 82 82 undefined N/A 29.84 1011 N/A 0.04 1.02
3:54 pm 15:54 undefined 35 1.7 32 0 89 89 undefined N/A 29.86 1011 N/A 0.12 3.05
4:54 pm 16:54 undefined 35 1.7 32 0 89 89 undefined N/A 29.88 1012 N/A 0.07 1.78
5:54 pm 17:54 undefined 35 1.7 32 0 89 89 undefined N/A 29.91 1013 N/A 0.08 2.03
6:54 pm 18:54 undefined 35 1.7 32 0 89 89 undefined N/A 29.93 1014 N/A 0.08 2.03
7:54 pm 19:54 undefined 36 2.2 32 0 86 86 undefined N/A 29.97 1015 N/A 0.00 0.00
8:54 pm 20:54 undefined 36 2.2 30 -1.1 79 79 undefined N/A 29.98 1015 N/A 0.00 0.00
9:54 pm 21:54 undefined 34 1.1 30 -1.1 85 85 undefined N/A 30.00 1016 N/A 0.00 0.00
10:54 pm 22:54 undefined 33 0.6 30 -1.1 89 89 undefined N/A 30.00 1016 N/A 0.00 0.00
11:54 pm 23:54 undefined 33 0.6 29 -1.7 85 85 undefined N/A 30.00 1016 N/A 0.00 0.00

Powered by AerisWeather